Weather History for Ellensburg, WA

Change the Weather History Date:

Wednesday, July 3, 2013

  Actual Average (KYKM) Record (KYKM)
Temperature  
Mean Temperature 78 °F 68 °F  
Max Temperature 89 °F 85 °F 100 °F (1991)
Min Temperature 66 °F 51 °F 36 °F (1999)
Degree Days  
Heating Degree Days 0 1  
Month to date heating degree days 3  
Since 1 June heating degree days 101  
Since 1 July heating degree days 3  
Cooling Degree Days 12 4  
Month to date cooling degree days 12  
Year to date cooling degree days 97  
Since 1 June cooling degree days 77  
Growing Degree Days 28 (Base 50)    
Moisture  
Dew Point 45 °F    
Average Humidity 34    
Maximum Humidity 52    
Minimum Humidity 15    
Precipitation  
Precipitation 0.00 in 0.01 in 0.47 in (1998)
Month to date precipitation 0.03  
Year to date precipitation 4.32  
Snow  
Snow 0.00 in 0.00 in 0.00 in (2002)
Month to date snowfall 0.0  
Year to date snowfall 8.6  
Since 1 July snowfall 0.0  
Snow Depth -    
Sea Level Pressure  
Sea Level Pressure 29.96 in    
Wind  
Wind Speed 22 mph (NW)    
Max Wind Speed 28 mph    
Max Gust Speed 36 mph    
Visibility 10 miles    
Events      
T = Trace of Precipitation, MM = Missing Value Source: NWS Daily Summary

Daily Weather History Graph

Daily Weather History Graph

Search for Another Location

Airport:

Trip Planner

Search our weather history database for the weather conditions in past years. The results will help you decide how hot, cold, wet, or windy it might be!

Date:

Astronomy

Jul. 03, 2013 Rise Set
Actual Time 5:12 AM PDT 9:00 PM PDT
Civil Twilight 4:32 AM PDT 9:39 PM PDT
Nautical Twilight 3:39 AM PDT 10:32 PM PDT
Astronomical Twilight 2:21 AM PDT 11:49 PM PDT
Moon 2:01 AM PDT (7/3) 5:09 PM PDT (7/3)
Length of Visible Light 17h 06m
Length of Day
15h 47m
Waning Crescent, 17% of the Moon is Illuminated
Jul 3
Waning Crescent
Jul 8
New
Jul 15
First Quarter
Jul 22
Full
Jul 29
Last Quarter

Hourly Weather History & Observations

Time (PDT) Temp. Dew Point Humidity Pressure Visibility Wind Dir Wind Speed Gust Speed Precip Events Conditions
12:53 AM 73.9 °F 44.1 °F 34% 29.94 in 10.0 mi NW 27.6 mph 35.7 mph N/A   Clear
1:53 AM 72.0 °F 46.9 °F 41% 29.95 in 10.0 mi NW 25.3 mph 35.7 mph N/A   Clear
2:53 AM 70.0 °F 48.0 °F 46% 29.96 in 10.0 mi NW 18.4 mph 29.9 mph N/A   Clear
3:53 AM 70.0 °F 45.0 °F 41% 29.98 in 10.0 mi NNW 15.0 mph 25.3 mph N/A   Clear
4:53 AM 66.9 °F 46.9 °F 49% 29.99 in 10.0 mi NW 19.6 mph 27.6 mph N/A   Clear
5:53 AM 66.0 °F 48.0 °F 52% 30.01 in 10.0 mi NNW 13.8 mph - N/A   Clear
6:53 AM 69.1 °F 48.9 °F 49% 30.01 in 10.0 mi NW 19.6 mph 26.5 mph N/A   Clear
7:53 AM 72.0 °F 50.0 °F 46% 30.00 in 10.0 mi NW 18.4 mph - N/A   Clear
8:53 AM 75.0 °F 51.1 °F 43% 30.01 in 10.0 mi NW 23.0 mph 32.2 mph N/A   Clear
9:53 AM 79.0 °F 50.0 °F 36% 30.00 in 10.0 mi NW 21.9 mph 32.2 mph N/A   Clear
10:53 AM 82.0 °F 48.9 °F 31% 29.99 in 10.0 mi WNW 21.9 mph 31.1 mph N/A   Clear
11:53 AM 84.9 °F 42.1 °F 22% 29.97 in 10.0 mi NW 19.6 mph 26.5 mph N/A   Clear
12:53 PM 88.0 °F 37.9 °F 17% 29.96 in 10.0 mi NW 21.9 mph - N/A   Clear
1:53 PM 89.1 °F 37.9 °F 16% 29.95 in 10.0 mi NW 24.2 mph 29.9 mph N/A   Clear
2:53 PM 89.1 °F 36.0 °F 15% 29.94 in 10.0 mi NW 23.0 mph 31.1 mph N/A   Clear
3:53 PM 88.0 °F 37.9 °F 17% 29.92 in 10.0 mi NW 25.3 mph 32.2 mph N/A   Clear
4:53 PM 87.1 °F 39.0 °F 18% 29.91 in 10.0 mi NW 27.6 mph 35.7 mph N/A   Clear
5:53 PM 84.9 °F 39.9 °F 20% 29.91 in 10.0 mi NW 27.6 mph 34.5 mph N/A   Clear
6:53 PM 82.0 °F 41.0 °F 23% 29.91 in 10.0 mi WNW 18.4 mph 32.2 mph N/A   Clear
7:53 PM 78.1 °F 44.1 °F 30% 29.92 in 10.0 mi NW 19.6 mph 29.9 mph N/A   Clear
8:53 PM 73.9 °F 46.0 °F 37% 29.92 in 10.0 mi NW 20.7 mph 28.8 mph N/A   Clear
9:53 PM 71.1 °F 46.0 °F 41% 29.94 in 10.0 mi NNW 18.4 mph - N/A   Clear
10:53 PM 69.1 °F 48.0 °F 47% 29.93 in 10.0 mi NW 21.9 mph 34.5 mph N/A   Clear
11:53 PM 66.9 °F 48.0 °F 51% 29.93 in 10.0 mi NW 23.0 mph 29.9 mph N/A   Clear